Location: Lake Almanor
(40.2485°N, 121.1442°W)
Time: 00:06:34
(UTC-08:00)

STARLINK-1092 - Pass Details

Date: 30 January 2020
Orbit: 348 x 351 km, 53.0° (Epoch: 23 February)

Event Time Altitude Azimuth Distance (km) Brightness Sun altitude
Rises 19:24:18 0° 307° (NW) 2,159 7.4 -23.7°
Reaches altitude 10° 19:26:19 10° 304° (WNW) 1,313 6.2 -24.1°
Enters shadow 19:27:26 21° 299° (WNW) 868 5.2 -24.3°
